Wetterdaten: Mittwoch, 09.08.2017
Datum Zeit Temp. A. Temp. A. max Feuchte A. Luftdruck Regen Wind Richtung Richtung Sonnenschein ET UV Solar Taupunkt Windchill Windböen
09.08.2017 00:00 13,5 °C 13,5 °C 95 % 1012,7 hPa 0,0 mm 0,9 km/h (0 Bft) N-NW 340 ° 0 min 0,000 mm 0,0 UV-I 0 W/m² 12,7 °C 13,5 °C 3,2 km/h (1 Bft)
09.08.2017 00:01 13,5 °C 13,5 °C 95 % 1012,5 hPa 0,0 mm 1,1 km/h (1 Bft) N-NW 340 ° 0 min 0,000 mm 0,0 UV-I 0 W/m² 12,7 °C 13,5 °C 3,2 km/h (1 Bft)
09.08.2017 00:02 13,4 °C 13,5 °C 95 % 1012,3 hPa 0,0 mm 0,6 km/h (0 Bft) N-NW 340 ° 0 min 0,000 mm 0,0 UV-I 0 W/m² 12,6 °C 13,4 °C 1,6 km/h (1 Bft)
09.08.2017 00:03 13,4 °C 13,4 °C 95 % 1012,1 hPa 0,0 mm 0,4 km/h (0 Bft) N-NW 340 ° 0 min 0,000 mm 0,0 UV-I 0 W/m² 12,6 °C 13,4 °C 1,6 km/h (1 Bft)
09.08.2017 00:04 13,4 °C 13,4 °C 95 % 1011,7 hPa 0,0 mm 0,3 km/h (0 Bft) N-NW 340 ° 0 min 0,000 mm 0,0 UV-I 0 W/m² 12,6 °C 13,4 °C 1,6 km/h (1 Bft)
09.08.2017 00:05 13,4 °C 13,4 °C 95 % 1011,5 hPa 0,0 mm 1,1 km/h (1 Bft) N-NW 344 ° 0 min 0,000 mm 0,0 UV-I 0 W/m² 12,6 °C 13,4 °C 3,2 km/h (1 Bft)
09.08.2017 00:06 13,4 °C 13,4 °C 95 % 1011,5 hPa 0,0 mm 2,0 km/h (1 Bft) N-NW 344 ° 0 min 0,000 mm 0,0 UV-I 0 W/m² 12,6 °C 13,4 °C 3,2 km/h (1 Bft)
09.08.2017 00:07 13,4 °C 13,4 °C 95 % 1011,5 hPa 0,0 mm 2,0 km/h (1 Bft) N 355 ° 0 min 0,000 mm 0,0 UV-I 0 W/m² 12,6 °C 13,4 °C 3,2 km/h (1 Bft)
09.08.2017 00:08 13,4 °C 13,4 °C 95 % 1011,6 hPa 0,0 mm 1,7 km/h (1 Bft) N 355 ° 0 min 0,000 mm 0,0 UV-I 0 W/m² 12,6 °C 13,4 °C 3,2 km/h (1 Bft)
09.08.2017 00:09 13,4 °C 13,4 °C 95 % 1011,6 hPa 0,0 mm 1,9 km/h (1 Bft) N 355 ° 0 min 0,000 mm 0,0 UV-I 0 W/m² 12,6 °C 13,4 °C 3,2 km/h (1 Bft)
09.08.2017 00:10 13,4 °C 13,4 °C 95 % 1012,1 hPa 0,0 mm 1,9 km/h (1 Bft) S-SW 193 ° 0 min 0,000 mm 0,0 UV-I 0 W/m² 12,6 °C 13,4 °C 3,2 km/h (1 Bft)
09.08.2017 00:11 13,4 °C 13,4 °C 95 % 1012,4 hPa 0,0 mm 2,7 km/h (1 Bft) S-SW 208 ° 0 min 0,000 mm 0,0 UV-I 0 W/m² 12,6 °C 13,4 °C 4,8 km/h (1 Bft)
09.08.2017 00:12 13,4 °C 13,4 °C 95 % 1012,4 hPa 0,0 mm 2,9 km/h (1 Bft) SW 219 ° 0 min 0,000 mm 0,0 UV-I 0 W/m² 12,6 °C 13,4 °C 4,8 km/h (1 Bft)
09.08.2017 00:13 13,4 °C 13,4 °C 95 % 1012,7 hPa 0,0 mm 3,2 km/h (1 Bft) S-SW 207 ° 0 min 0,000 mm 0,0 UV-I 0 W/m² 12,6 °C 13,4 °C 4,8 km/h (1 Bft)
09.08.2017 00:14 13,5 °C 13,5 °C 95 % 1012,9 hPa 0,0 mm 5,4 km/h (1 Bft) S-SW 203 ° 0 min 0,000 mm 0,0 UV-I 0 W/m² 12,7 °C 13,5 °C 8,0 km/h (2 Bft)
09.08.2017 00:15 13,5 °C 13,5 °C 95 % 1013,1 hPa 0,0 mm 1,7 km/h (1 Bft) S-SW 203 ° 0 min 0,000 mm 0,0 UV-I 0 W/m² 12,7 °C 13,5 °C 3,2 km/h (1 Bft)
09.08.2017 00:16 13,5 °C 13,5 °C 95 % 1013,1 hPa 0,0 mm 1,5 km/h (1 Bft) S-SW 203 ° 0 min 0,000 mm 0,0 UV-I 0 W/m² 12,7 °C 13,5 °C 3,2 km/h (1 Bft)
09.08.2017 00:17 13,5 °C 13,5 °C 95 % 1013,0 hPa 0,0 mm 0,4 km/h (0 Bft) S-SW 203 ° 0 min 0,000 mm 0,0 UV-I 0 W/m² 12,7 °C 13,5 °C 1,6 km/h (1 Bft)
09.08.2017 00:18 13,5 °C 13,5 °C 95 % 1012,8 hPa 0,0 mm 0,0 km/h (0 Bft) S-SW 203 ° 0 min 0,000 mm 0,0 UV-I 0 W/m² 12,7 °C 13,5 °C 0,0 km/h (0 Bft)
09.08.2017 00:19 13,5 °C 13,5 °C 95 % 1012,6 hPa 0,0 mm 0,0 km/h (0 Bft) S-SW 203 ° 0 min 0,000 mm 0,0 UV-I 0 W/m² 12,7 °C 13,5 °C 0,0 km/h (0 Bft)
09.08.2017 00:20 13,5 °C 13,5 °C 95 % 1012,3 hPa 0,0 mm 1,7 km/h (1 Bft) S 184 ° 0 min 0,000 mm 0,0 UV-I 0 W/m² 12,7 °C 13,5 °C 3,2 km/h (1 Bft)
09.08.2017 00:21 13,4 °C 13,5 °C 94 % 1012,3 hPa 0,0 mm 1,9 km/h (1 Bft) S 184 ° 0 min 0,000 mm 0,0 UV-I 0 W/m² 12,5 °C 13,4 °C 3,2 km/h (1 Bft)
09.08.2017 00:22 13,4 °C 13,4 °C 94 % 1012,2 hPa 0,0 mm 0,6 km/h (0 Bft) S 184 ° 0 min 0,000 mm 0,0 UV-I 0 W/m² 12,5 °C 13,4 °C 1,6 km/h (1 Bft)
09.08.2017 00:23 13,4 °C 13,4 °C 94 % 1012,1 hPa 0,0 mm 0,1 km/h (0 Bft) S 184 ° 0 min 0,000 mm 0,0 UV-I 0 W/m² 12,5 °C 13,4 °C 1,6 km/h (1 Bft)
09.08.2017 00:24 13,3 °C 13,4 °C 94 % 1012,2 hPa 0,0 mm 0,4 km/h (0 Bft) S 184 ° 0 min 0,000 mm 0,0 UV-I 0 W/m² 12,4 °C 13,3 °C 3,2 km/h (1 Bft)
09.08.2017 00:25 13,3 °C 13,3 °C 95 % 1012,2 hPa 0,0 mm 3,1 km/h (1 Bft) NW 313 ° 0 min 0,000 mm 0,0 UV-I 0 W/m² 12,5 °C 13,3 °C 4,8 km/h (1 Bft)
09.08.2017 00:26 13,3 °C 13,3 °C 95 % 1012,3 hPa 0,0 mm 1,5 km/h (1 Bft) NW 313 ° 0 min 0,000 mm 0,0 UV-I 0 W/m² 12,5 °C 13,3 °C 3,2 km/h (1 Bft)
09.08.2017 00:27 13,3 °C 13,3 °C 95 % 1012,3 hPa 0,0 mm 2,6 km/h (1 Bft) W-NW 298 ° 0 min 0,000 mm 0,0 UV-I 0 W/m² 12,5 °C 13,3 °C 4,8 km/h (1 Bft)
09.08.2017 00:28 13,3 °C 13,3 °C 95 % 1012,4 hPa 0,0 mm 2,2 km/h (1 Bft) W-NW 298 ° 0 min 0,000 mm 0,0 UV-I 0 W/m² 12,5 °C 13,3 °C 4,8 km/h (1 Bft)
09.08.2017 00:29 13,3 °C 13,3 °C 95 % 1012,4 hPa 0,0 mm 0,8 km/h (0 Bft) W-NW 298 ° 0 min 0,000 mm 0,0 UV-I 0 W/m² 12,5 °C 13,3 °C 3,2 km/h (1 Bft)
09.08.2017 00:30 13,3 °C 13,3 °C 95 % 1012,4 hPa 0,0 mm 0,8 km/h (0 Bft) W-NW 298 ° 0 min 0,000 mm 0,0 UV-I 0 W/m² 12,5 °C 13,3 °C 3,2 km/h (1 Bft)
09.08.2017 00:31 13,3 °C 13,3 °C 95 % 1012,4 hPa 0,0 mm 0,0 km/h (0 Bft) W-NW 298 ° 0 min 0,000 mm 0,0 UV-I 0 W/m² 12,5 °C 13,3 °C 0,0 km/h (0 Bft)
09.08.2017 00:32 13,3 °C 13,3 °C 95 % 1012,4 hPa 0,0 mm 0,9 km/h (0 Bft) W-NW 298 ° 0 min 0,000 mm 0,0 UV-I 0 W/m² 12,5 °C 13,3 °C 1,6 km/h (1 Bft)
09.08.2017 00:33 13,2 °C 13,3 °C 95 % 1012,4 hPa 0,0 mm 0,0 km/h (0 Bft) W-NW 298 ° 0 min 0,000 mm 0,0 UV-I 0 W/m² 12,4 °C 13,2 °C 0,0 km/h (0 Bft)
09.08.2017 00:34 13,2 °C 13,2 °C 95 % 1012,4 hPa 0,0 mm 0,0 km/h (0 Bft) W-NW 298 ° 0 min 0,000 mm 0,0 UV-I 0 W/m² 12,4 °C 13,2 °C 0,0 km/h (0 Bft)
09.08.2017 00:35 13,3 °C 13,3 °C 95 % 1012,6 hPa 0,0 mm 0,0 km/h (0 Bft) W-NW 298 ° 0 min 0,000 mm 0,0 UV-I 0 W/m² 12,5 °C 13,3 °C 0,0 km/h (0 Bft)
09.08.2017 00:36 13,2 °C 13,3 °C 95 % 1012,7 hPa 0,0 mm 2,1 km/h (1 Bft) NW 305 ° 0 min 0,000 mm 0,0 UV-I 0 W/m² 12,4 °C 13,2 °C 4,8 km/h (1 Bft)
09.08.2017 00:37 13,2 °C 13,2 °C 95 % 1013,4 hPa 0,0 mm 8,8 km/h (2 Bft) W-NW 294 ° 0 min 0,000 mm 0,0 UV-I 0 W/m² 12,4 °C 13,2 °C 14,5 km/h (3 Bft)
09.08.2017 00:38 13,2 °C 13,3 °C 95 % 1013,4 hPa 0,0 mm 14,0 km/h (3 Bft) W 268 ° 0 min 0,000 mm 0,0 UV-I 0 W/m² 12,4 °C 13,2 °C 20,9 km/h (4 Bft)
09.08.2017 00:39 13,3 °C 13,3 °C 95 % 1013,5 hPa 0,0 mm 11,8 km/h (2 Bft) W-NW 288 ° 0 min 0,000 mm 0,0 UV-I 0 W/m² 12,5 °C 13,3 °C 22,5 km/h (4 Bft)
09.08.2017 00:40 13,3 °C 13,3 °C 95 % 1013,6 hPa 0,0 mm 8,1 km/h (2 Bft) W 260 ° 0 min 0,000 mm 0,0 UV-I 0 W/m² 12,5 °C 13,3 °C 14,5 km/h (3 Bft)
09.08.2017 00:41 13,3 °C 13,3 °C 95 % 1013,5 hPa 0,0 mm 8,4 km/h (2 Bft) W 267 ° 0 min 0,000 mm 0,0 UV-I 0 W/m² 12,5 °C 13,3 °C 14,5 km/h (3 Bft)
09.08.2017 00:42 13,4 °C 13,4 °C 95 % 1013,6 hPa 0,0 mm 11,9 km/h (2 Bft) W-NW 296 ° 0 min 0,000 mm 0,0 UV-I 0 W/m² 12,6 °C 13,4 °C 16,1 km/h (3 Bft)
09.08.2017 00:43 13,4 °C 13,4 °C 95 % 1013,6 hPa 0,0 mm 6,8 km/h (2 Bft) W 270 ° 0 min 0,000 mm 0,0 UV-I 0 W/m² 12,6 °C 13,4 °C 9,7 km/h (2 Bft)
09.08.2017 00:44 13,4 °C 13,4 °C 95 % 1013,7 hPa 0,0 mm 12,2 km/h (2 Bft) W-NW 286 ° 0 min 0,000 mm 0,0 UV-I 0 W/m² 12,6 °C 13,4 °C 20,9 km/h (4 Bft)
09.08.2017 00:45 13,5 °C 13,5 °C 95 % 1013,9 hPa 0,0 mm 11,7 km/h (2 Bft) W 267 ° 0 min 0,000 mm 0,0 UV-I 0 W/m² 12,7 °C 13,5 °C 17,7 km/h (3 Bft)
09.08.2017 00:46 13,5 °C 13,5 °C 95 % 1014,0 hPa 0,0 mm 6,5 km/h (2 Bft) W-SW 244 ° 0 min 0,000 mm 0,0 UV-I 0 W/m² 12,7 °C 13,5 °C 11,3 km/h (2 Bft)
09.08.2017 00:47 13,6 °C 13,6 °C 95 % 1014,0 hPa 0,0 mm 4,3 km/h (1 Bft) S 177 ° 0 min 0,000 mm 0,0 UV-I 0 W/m² 12,8 °C 13,6 °C 8,0 km/h (2 Bft)
09.08.2017 00:48 13,6 °C 13,6 °C 95 % 1014,0 hPa 0,0 mm 3,8 km/h (1 Bft) S 177 ° 0 min 0,000 mm 0,0 UV-I 0 W/m² 12,8 °C 13,6 °C 6,4 km/h (2 Bft)
09.08.2017 00:49 13,6 °C 13,6 °C 95 % 1014,0 hPa 0,0 mm 3,0 km/h (1 Bft) S 178 ° 0 min 0,000 mm 0,0 UV-I 0 W/m² 12,8 °C 13,6 °C 4,8 km/h (1 Bft)
09.08.2017 00:50 13,6 °C 13,6 °C 95 % 1014,1 hPa 0,0 mm 0,5 km/h (0 Bft) S 178 ° 0 min 0,000 mm 0,0 UV-I 0 W/m² 12,8 °C 13,6 °C 1,6 km/h (1 Bft)
09.08.2017 00:51 13,6 °C 13,6 °C 95 % 1014,1 hPa 0,0 mm 2,0 km/h (1 Bft) W-SW 252 ° 0 min 0,000 mm 0,0 UV-I 0 W/m² 12,8 °C 13,6 °C 3,2 km/h (1 Bft)
09.08.2017 00:52 13,7 °C 13,7 °C 95 % 1014,1 hPa 0,0 mm 4,2 km/h (1 Bft) W 277 ° 0 min 0,000 mm 0,0 UV-I 0 W/m² 12,9 °C 13,7 °C 8,0 km/h (2 Bft)
09.08.2017 00:53 13,7 °C 13,7 °C 95 % 1014,2 hPa 0,0 mm 4,0 km/h (1 Bft) W 277 ° 0 min 0,000 mm 0,0 UV-I 0 W/m² 12,9 °C 13,7 °C 6,4 km/h (2 Bft)
09.08.2017 00:54 13,7 °C 13,7 °C 94 % 1014,1 hPa 0,0 mm 2,3 km/h (1 Bft) W 277 ° 0 min 0,000 mm 0,0 UV-I 0 W/m² 12,8 °C 13,7 °C 4,8 km/h (1 Bft)
09.08.2017 00:55 13,7 °C 13,7 °C 94 % 1013,9 hPa 0,0 mm 1,5 km/h (1 Bft) W 277 ° 0 min 0,000 mm 0,0 UV-I 0 W/m² 12,8 °C 13,7 °C 3,2 km/h (1 Bft)
09.08.2017 00:56 13,7 °C 13,7 °C 94 % 1013,9 hPa 0,0 mm 0,6 km/h (0 Bft) W 280 ° 0 min 0,000 mm 0,0 UV-I 0 W/m² 12,8 °C 13,7 °C 3,2 km/h (1 Bft)
09.08.2017 00:57 13,7 °C 13,8 °C 94 % 1013,9 hPa 0,0 mm 4,5 km/h (1 Bft) W-NW 293 ° 0 min 0,000 mm 0,0 UV-I 0 W/m² 12,8 °C 13,7 °C 8,0 km/h (2 Bft)
09.08.2017 00:58 13,8 °C 13,8 °C 94 % 1013,9 hPa 0,0 mm 3,4 km/h (1 Bft) W-NW 294 ° 0 min 0,000 mm 0,0 UV-I 0 W/m² 12,9 °C 13,8 °C 6,4 km/h (2 Bft)
09.08.2017 00:59 13,8 °C 13,8 °C 94 % 1013,9 hPa 0,0 mm 0,3 km/h (0 Bft) W-NW 294 ° 0 min 0,000 mm 0,0 UV-I 0 W/m² 12,9 °C 13,8 °C 1,6 km/h (1 Bft)
09.08.2017 01:00 13,7 °C 13,8 °C 94 % 1013,9 hPa 0,0 mm 1,3 km/h (1 Bft) W-NW 294 ° 0 min 0,000 mm 0,0 UV-I 0 W/m² 12,8 °C 13,7 °C 3,2 km/h (1 Bft)
09.08.2017 01:01 13,7 °C 13,7 °C 94 % 1013,9 hPa 0,0 mm 1,1 km/h (1 Bft) W-NW 288 ° 0 min 0,000 mm 0,0 UV-I 0 W/m² 12,8 °C 13,7 °C 3,2 km/h (1 Bft)
09.08.2017 01:02 13,7 °C 13,7 °C 94 % 1013,9 hPa 0,0 mm 2,8 km/h (1 Bft) S-SW 200 ° 0 min 0,000 mm 0,0 UV-I 0 W/m² 12,8 °C 13,7 °C 4,8 km/h (1 Bft)
09.08.2017 01:03 13,7 °C 13,7 °C 94 % 1013,9 hPa 0,0 mm 3,4 km/h (1 Bft) S-SW 200 ° 0 min 0,000 mm 0,0 UV-I 0 W/m² 12,8 °C 13,7 °C 4,8 km/h (1 Bft)
09.08.2017 01:04 13,7 °C 13,7 °C 94 % 1013,9 hPa 0,0 mm 3,5 km/h (1 Bft) S-SW 202 ° 0 min 0,000 mm 0,0 UV-I 0 W/m² 12,8 °C 13,7 °C 4,8 km/h (1 Bft)
09.08.2017 01:05 13,7 °C 13,7 °C 94 % 1013,9 hPa 0,0 mm 2,7 km/h (1 Bft) S-SW 202 ° 0 min 0,000 mm 0,0 UV-I 0 W/m² 12,8 °C 13,7 °C 3,2 km/h (1 Bft)
09.08.2017 01:06 13,7 °C 13,7 °C 94 % 1013,9 hPa 0,0 mm 0,6 km/h (0 Bft) S-SW 202 ° 0 min 0,000 mm 0,0 UV-I 0 W/m² 12,8 °C 13,7 °C 3,2 km/h (1 Bft)
09.08.2017 01:07 13,7 °C 13,7 °C 94 % 1013,9 hPa 0,0 mm 1,1 km/h (1 Bft) S-SW 202 ° 0 min 0,000 mm 0,0 UV-I 0 W/m² 12,8 °C 13,7 °C 3,2 km/h (1 Bft)
09.08.2017 01:08 13,7 °C 13,7 °C 94 % 1013,9 hPa 0,0 mm 0,0 km/h (0 Bft) S-SW 202 ° 0 min 0,000 mm 0,0 UV-I 0 W/m² 12,8 °C 13,7 °C 0,0 km/h (0 Bft)
09.08.2017 01:09 13,6 °C 13,7 °C 94 % 1013,8 hPa 0,0 mm 0,0 km/h (0 Bft) S-SW 202 ° 0 min 0,000 mm 0,0 UV-I 0 W/m² 12,7 °C 13,6 °C 0,0 km/h (0 Bft)
09.08.2017 01:10 13,6 °C 13,6 °C 94 % 1013,7 hPa 0,0 mm 1,6 km/h (1 Bft) S-SW 202 ° 0 min 0,000 mm 0,0 UV-I 0 W/m² 12,7 °C 13,6 °C 3,2 km/h (1 Bft)
09.08.2017 01:11 13,6 °C 13,6 °C 94 % 1013,7 hPa 0,0 mm 3,2 km/h (1 Bft) S-SW 201 ° 0 min 0,000 mm 0,0 UV-I 0 W/m² 12,7 °C 13,6 °C 4,8 km/h (1 Bft)
09.08.2017 01:12 13,6 °C 13,6 °C 94 % 1013,7 hPa 0,0 mm 2,8 km/h (1 Bft) S-SW 201 ° 0 min 0,000 mm 0,0 UV-I 0 W/m² 12,7 °C 13,6 °C 3,2 km/h (1 Bft)
09.08.2017 01:13 13,6 °C 13,6 °C 94 % 1013,7 hPa 0,0 mm 1,8 km/h (1 Bft) S-SW 201 ° 0 min 0,000 mm 0,0 UV-I 0 W/m² 12,7 °C 13,6 °C 3,2 km/h (1 Bft)
09.08.2017 01:14 13,6 °C 13,6 °C 94 % 1013,7 hPa 0,0 mm 0,8 km/h (0 Bft) S-SW 201 ° 0 min 0,000 mm 0,0 UV-I 0 W/m² 12,7 °C 13,6 °C 1,6 km/h (1 Bft)
09.08.2017 01:15 13,5 °C 13,6 °C 94 % 1013,8 hPa 0,0 mm 0,0 km/h (0 Bft) S-SW 201 ° 0 min 0,000 mm 0,0 UV-I 0 W/m² 12,6 °C 13,5 °C 0,0 km/h (0 Bft)
09.08.2017 01:16 13,5 °C 13,5 °C 94 % 1013,8 hPa 0,0 mm 0,2 km/h (0 Bft) S-SW 201 ° 0 min 0,000 mm 0,0 UV-I 0 W/m² 12,6 °C 13,5 °C 1,6 km/h (1 Bft)
09.08.2017 01:17 13,4 °C 13,5 °C 94 % 1013,9 hPa 0,0 mm 1,1 km/h (1 Bft) S-SW 201 ° 0 min 0,000 mm 0,0 UV-I 0 W/m² 12,5 °C 13,4 °C 3,2 km/h (1 Bft)
09.08.2017 01:18 13,4 °C 13,4 °C 95 % 1013,9 hPa 0,0 mm 2,5 km/h (1 Bft) S-SW 201 ° 0 min 0,000 mm 0,0 UV-I 0 W/m² 12,6 °C 13,4 °C 4,8 km/h (1 Bft)
09.08.2017 01:19 13,4 °C 13,4 °C 94 % 1013,9 hPa 0,0 mm 1,6 km/h (1 Bft) S-SW 201 ° 0 min 0,000 mm 0,0 UV-I 0 W/m² 12,5 °C 13,4 °C 3,2 km/h (1 Bft)
09.08.2017 01:20 13,4 °C 13,4 °C 94 % 1013,8 hPa 0,0 mm 0,0 km/h (0 Bft) S-SW 201 ° 0 min 0,000 mm 0,0 UV-I 0 W/m² 12,5 °C 13,4 °C 0,0 km/h (0 Bft)
09.08.2017 01:21 13,4 °C 13,4 °C 94 % 1013,8 hPa 0,0 mm 1,8 km/h (1 Bft) S-SW 201 ° 0 min 0,000 mm 0,0 UV-I 0 W/m² 12,5 °C 13,4 °C 3,2 km/h (1 Bft)
09.08.2017 01:22 13,4 °C 13,4 °C 95 % 1013,8 hPa 0,0 mm 1,7 km/h (1 Bft) S-SW 201 ° 0 min 0,000 mm 0,0 UV-I 0 W/m² 12,6 °C 13,4 °C 3,2 km/h (1 Bft)
09.08.2017 01:23 13,4 °C 13,4 °C 95 % 1013,7 hPa 0,0 mm 1,7 km/h (1 Bft) S-SW 201 ° 0 min 0,000 mm 0,0 UV-I 0 W/m² 12,6 °C 13,4 °C 3,2 km/h (1 Bft)
09.08.2017 01:24 13,4 °C 13,4 °C 95 % 1013,7 hPa 0,0 mm 3,6 km/h (1 Bft) S-SW 201 ° 0 min 0,000 mm 0,0 UV-I 0 W/m² 12,6 °C 13,4 °C 4,8 km/h (1 Bft)
09.08.2017 01:25 13,4 °C 13,4 °C 95 % 1013,7 hPa 0,0 mm 3,8 km/h (1 Bft) S-SW 201 ° 0 min 0,000 mm 0,0 UV-I 0 W/m² 12,6 °C 13,4 °C 4,8 km/h (1 Bft)
09.08.2017 01:26 13,4 °C 13,4 °C 95 % 1013,8 hPa 0,0 mm 3,2 km/h (1 Bft) S-SW 201 ° 0 min 0,000 mm 0,0 UV-I 0 W/m² 12,6 °C 13,4 °C 4,8 km/h (1 Bft)
09.08.2017 01:27 13,4 °C 13,4 °C 95 % 1013,7 hPa 0,0 mm 1,8 km/h (1 Bft) S-SW 201 ° 0 min 0,000 mm 0,0 UV-I 0 W/m² 12,6 °C 13,4 °C 3,2 km/h (1 Bft)
09.08.2017 01:28 13,4 °C 13,4 °C 95 % 1013,8 hPa 0,0 mm 0,0 km/h (0 Bft) S-SW 201 ° 0 min 0,000 mm 0,0 UV-I 0 W/m² 12,6 °C 13,4 °C 0,0 km/h (0 Bft)
09.08.2017 01:29 13,4 °C 13,4 °C 95 % 1013,8 hPa 0,0 mm 0,0 km/h (0 Bft) S-SW 201 ° 0 min 0,000 mm 0,0 UV-I 0 W/m² 12,6 °C 13,4 °C 0,0 km/h (0 Bft)
09.08.2017 01:30 13,4 °C 13,4 °C 95 % 1013,8 hPa 0,0 mm 0,0 km/h (0 Bft) S-SW 201 ° 0 min 0,000 mm 0,0 UV-I 0 W/m² 12,6 °C 13,4 °C 0,0 km/h (0 Bft)
09.08.2017 01:31 13,4 °C 13,5 °C 95 % 1013,8 hPa 0,0 mm 1,0 km/h (0 Bft) S-SW 201 ° 0 min 0,000 mm 0,0 UV-I 0 W/m² 12,6 °C 13,4 °C 3,2 km/h (1 Bft)
09.08.2017 01:32 13,4 °C 13,5 °C 95 % 1013,8 hPa 0,0 mm 2,2 km/h (1 Bft) S-SW 202 ° 0 min 0,000 mm 0,0 UV-I 0 W/m² 12,6 °C 13,4 °C 3,2 km/h (1 Bft)
09.08.2017 01:33 13,4 °C 13,4 °C 95 % 1013,8 hPa 0,0 mm 0,2 km/h (0 Bft) S-SW 202 ° 0 min 0,000 mm 0,0 UV-I 0 W/m² 12,6 °C 13,4 °C 1,6 km/h (1 Bft)
09.08.2017 01:34 13,4 °C 13,4 °C 95 % 1013,8 hPa 0,0 mm 0,1 km/h (0 Bft) S-SW 202 ° 0 min 0,000 mm 0,0 UV-I 0 W/m² 12,6 °C 13,4 °C 1,6 km/h (1 Bft)
09.08.2017 01:35 13,4 °C 13,4 °C 95 % 1013,7 hPa 0,0 mm 0,0 km/h (0 Bft) S-SW 202 ° 0 min 0,000 mm 0,0 UV-I 0 W/m² 12,6 °C 13,4 °C 0,0 km/h (0 Bft)
09.08.2017 01:36 13,4 °C 13,4 °C 95 % 1013,6 hPa 0,0 mm 0,1 km/h (0 Bft) S-SW 202 ° 0 min 0,000 mm 0,0 UV-I 0 W/m² 12,6 °C 13,4 °C 1,6 km/h (1 Bft)
09.08.2017 01:37 13,4 °C 13,4 °C 95 % 1013,6 hPa 0,0 mm 0,0 km/h (0 Bft) S-SW 202 ° 0 min 0,000 mm 0,0 UV-I 0 W/m² 12,6 °C 13,4 °C 0,0 km/h (0 Bft)
09.08.2017 01:38 13,4 °C 13,4 °C 95 % 1013,6 hPa 0,0 mm 0,3 km/h (0 Bft) S-SW 205 ° 0 min 0,000 mm 0,0 UV-I 0 W/m² 12,6 °C 13,4 °C 3,2 km/h (1 Bft)
09.08.2017 01:39 13,4 °C 13,4 °C 95 % 1013,7 hPa 0,0 mm 1,4 km/h (1 Bft) S-SW 205 ° 0 min 0,000 mm 0,0 UV-I 0 W/m² 12,6 °C 13,4 °C 3,2 km/h (1 Bft)
09.08.2017 01:40 13,4 °C 13,4 °C 95 % 1013,8 hPa 0,0 mm 0,1 km/h (0 Bft) S-SW 205 ° 0 min 0,000 mm 0,0 UV-I 0 W/m² 12,6 °C 13,4 °C 1,6 km/h (1 Bft)
09.08.2017 01:41 13,4 °C 13,4 °C 95 % 1013,9 hPa 0,0 mm 0,1 km/h (0 Bft) S-SW 205 ° 0 min 0,000 mm 0,0 UV-I 0 W/m² 12,6 °C 13,4 °C 1,6 km/h (1 Bft)
09.08.2017 01:42 13,4 °C 13,4 °C 95 % 1013,9 hPa 0,0 mm 0,0 km/h (0 Bft) S-SW 205 ° 0 min 0,000 mm 0,0 UV-I 0 W/m² 12,6 °C 13,4 °C 0,0 km/h (0 Bft)
09.08.2017 01:43 13,4 °C 13,4 °C 95 % 1014,0 hPa 0,0 mm 0,0 km/h (0 Bft) S-SW 205 ° 0 min 0,000 mm 0,0 UV-I 0 W/m² 12,6 °C 13,4 °C 0,0 km/h (0 Bft)
09.08.2017 01:44 13,4 °C 13,4 °C 95 % 1014,0 hPa 0,0 mm 0,0 km/h (0 Bft) S-SW 205 ° 0 min 0,000 mm 0,0 UV-I 0 W/m² 12,6 °C 13,4 °C 0,0 km/h (0 Bft)
09.08.2017 01:45 13,4 °C 13,4 °C 95 % 1014,1 hPa 0,0 mm 0,0 km/h (0 Bft) S-SW 205 ° 0 min 0,000 mm 0,0 UV-I 0 W/m² 12,6 °C 13,4 °C 0,0 km/h (0 Bft)
09.08.2017 01:46 13,4 °C 13,4 °C 95 % 1014,4 hPa 0,0 mm 0,0 km/h (0 Bft) S-SW 205 ° 0 min 0,000 mm 0,0 UV-I 0 W/m² 12,6 °C 13,4 °C 0,0 km/h (0 Bft)
09.08.2017 01:47 13,4 °C 13,4 °C 95 % 1014,4 hPa 0,0 mm 0,0 km/h (0 Bft) S-SW 205 ° 0 min 0,000 mm 0,0 UV-I 0 W/m² 12,6 °C 13,4 °C 0,0 km/h (0 Bft)
09.08.2017 01:48 13,4 °C 13,4 °C 95 % 1014,4 hPa 0,0 mm 0,0 km/h (0 Bft) S-SW 205 ° 0 min 0,000 mm 0,0 UV-I 0 W/m² 12,6 °C 13,4 °C 0,0 km/h (0 Bft)
09.08.2017 01:49 13,4 °C 13,4 °C 95 % 1014,3 hPa 0,0 mm 1,3 km/h (1 Bft) S-SW 205 ° 0 min 0,000 mm 0,0 UV-I 0 W/m² 12,6 °C 13,4 °C 3,2 km/h (1 Bft)
09.08.2017 01:50 13,5 °C 13,5 °C 95 % 1014,3 hPa 0,0 mm 1,2 km/h (1 Bft) S-SW 205 ° 0 min 0,000 mm 0,0 UV-I 0 W/m² 12,7 °C 13,5 °C 3,2 km/h (1 Bft)
09.08.2017 01:51 13,5 °C 13,5 °C 95 % 1014,2 hPa 0,0 mm 0,8 km/h (0 Bft) S-SW 205 ° 0 min 0,000 mm 0,0 UV-I 0 W/m² 12,7 °C 13,5 °C 3,2 km/h (1 Bft)
09.08.2017 01:52 13,6 °C 13,6 °C 95 % 1014,2 hPa 0,0 mm 2,4 km/h (1 Bft) S-SW 205 ° 0 min 0,000 mm 0,0 UV-I 0 W/m² 12,8 °C 13,6 °C 3,2 km/h (1 Bft)
09.08.2017 01:53 13,6 °C 13,6 °C 95 % 1014,2 hPa 0,0 mm 3,0 km/h (1 Bft) W-SW 254 ° 0 min 0,000 mm 0,0 UV-I 0 W/m² 12,8 °C 13,6 °C 4,8 km/h (1 Bft)
09.08.2017 01:54 13,6 °C 13,6 °C 95 % 1014,2 hPa 0,2 mm 4,4 km/h (1 Bft) W 277 ° 0 min 0,000 mm 0,0 UV-I 0 W/m² 12,8 °C 13,6 °C 6,4 km/h (2 Bft)
09.08.2017 01:55 13,6 °C 13,6 °C 95 % 1014,4 hPa 0,0 mm 4,2 km/h (1 Bft) W-NW 302 ° 0 min 0,000 mm 0,0 UV-I 0 W/m² 12,8 °C 13,6 °C 6,4 km/h (2 Bft)
09.08.2017 01:56 13,6 °C 13,6 °C 95 % 1014,4 hPa 0,0 mm 3,6 km/h (1 Bft) W-NW 294 ° 0 min 0,000 mm 0,0 UV-I 0 W/m² 12,8 °C 13,6 °C 4,8 km/h (1 Bft)
09.08.2017 01:57 13,6 °C 13,6 °C 95 % 1014,5 hPa 0,0 mm 4,7 km/h (1 Bft) W-SW 255 ° 0 min 0,000 mm 0,0 UV-I 0 W/m² 12,8 °C 13,6 °C 6,4 km/h (2 Bft)
09.08.2017 01:58 13,5 °C 13,6 °C 95 % 1014,6 hPa 0,2 mm 6,8 km/h (2 Bft) W-NW 290 ° 0 min 0,000 mm 0,0 UV-I 0 W/m² 12,7 °C 13,5 °C 9,7 km/h (2 Bft)
09.08.2017 01:59 13,5 °C 13,6 °C 95 % 1014,7 hPa 0,0 mm 6,1 km/h (2 Bft) W 261 ° 0 min 0,000 mm 0,0 UV-I 0 W/m² 12,7 °C 13,5 °C 9,7 km/h (2 Bft)
09.08.2017 02:00 13,6 °C 13,6 °C 95 % 1014,7 hPa 0,0 mm 6,2 km/h (2 Bft) W 259 ° 0 min 0,000 mm 0,0 UV-I 0 W/m² 12,8 °C 13,6 °C 11,3 km/h (2 Bft)
09.08.2017 02:01 13,6 °C 13,6 °C 95 % 1014,7 hPa 0,0 mm 6,9 km/h (2 Bft) W 277 ° 0 min 0,000 mm 0,0 UV-I 0 W/m² 12,8 °C 13,6 °C 11,3 km/h (2 Bft)
09.08.2017 02:02 13,6 °C 13,6 °C 95 % 1014,7 hPa 0,0 mm 3,4 km/h (1 Bft) W 265 ° 0 min 0,000 mm 0,0 UV-I 0 W/m² 12,8 °C 13,6 °C 4,8 km/h (1 Bft)
09.08.2017 02:03 13,6 °C 13,6 °C 95 % 1014,9 hPa 0,0 mm 2,4 km/h (1 Bft) W 267 ° 0 min 0,000 mm 0,0 UV-I 0 W/m² 12,8 °C 13,6 °C 3,2 km/h (1 Bft)
09.08.2017 02:04 13,7 °C 13,7 °C 95 % 1014,9 hPa 0,0 mm 5,0 km/h (1 Bft) W 260 ° 0 min 0,000 mm 0,0 UV-I 0 W/m² 12,9 °C 13,7 °C 11,3 km/h (2 Bft)
09.08.2017 02:05 13,7 °C 13,7 °C 95 % 1014,9 hPa 0,0 mm 5,4 km/h (1 Bft) W 275 ° 0 min 0,000 mm 0,0 UV-I 0 W/m² 12,9 °C 13,7 °C 9,7 km/h (2 Bft)
09.08.2017 02:06 13,7 °C 13,7 °C 95 % 1015,0 hPa 0,0 mm 1,3 km/h (1 Bft) W-SW 249 ° 0 min 0,000 mm 0,0 UV-I 0 W/m² 12,9 °C 13,7 °C 3,2 km/h (1 Bft)
09.08.2017 02:07 13,7 °C 13,7 °C 95 % 1015,2 hPa 0,2 mm 1,7 km/h (1 Bft) W-NW 286 ° 0 min 0,000 mm 0,0 UV-I 0 W/m² 12,9 °C 13,7 °C 4,8 km/h (1 Bft)
09.08.2017 02:08 13,8 °C 13,8 °C 95 % 1015,2 hPa 0,0 mm 2,0 km/h (1 Bft) W-SW 247 ° 0 min 0,000 mm 0,0 UV-I 0 W/m² 13,0 °C 13,8 °C 3,2 km/h (1 Bft)
09.08.2017 02:09 13,8 °C 13,8 °C 95 % 1015,1 hPa 0,0 mm 4,4 km/h (1 Bft) S 184 ° 0 min 0,000 mm 0,0 UV-I 0 W/m² 13,0 °C 13,8 °C 6,4 km/h (2 Bft)
09.08.2017 02:10 13,8 °C 13,8 °C 95 % 1015,0 hPa 0,0 mm 4,9 km/h (1 Bft) S 171 ° 0 min 0,000 mm 0,0 UV-I 0 W/m² 13,0 °C 13,8 °C 8,0 km/h (2 Bft)
09.08.2017 02:11 13,8 °C 13,8 °C 95 % 1015,0 hPa 0,2 mm 0,3 km/h (0 Bft) S 171 ° 0 min 0,000 mm 0,0 UV-I 0 W/m² 13,0 °C 13,8 °C 3,2 km/h (1 Bft)
09.08.2017 02:12 13,8 °C 13,8 °C 95 % 1014,8 hPa 0,2 mm 1,3 km/h (1 Bft) S 171 ° 0 min 0,000 mm 0,0 UV-I 0 W/m² 13,0 °C 13,8 °C 3,2 km/h (1 Bft)
09.08.2017 02:13 13,8 °C 13,8 °C 95 % 1014,8 hPa 0,0 mm 0,8 km/h (0 Bft) S 171 ° 0 min 0,000 mm 0,0 UV-I 0 W/m² 13,0 °C 13,8 °C 3,2 km/h (1 Bft)
09.08.2017 02:14 13,8 °C 13,8 °C 95 % 1014,5 hPa 0,2 mm 0,0 km/h (0 Bft) S 171 ° 0 min 0,000 mm 0,0 UV-I 0 W/m² 13,0 °C 13,8 °C 0,0 km/h (0 Bft)
09.08.2017 02:15 13,8 °C 13,8 °C 95 % 1014,5 hPa 0,0 mm 0,6 km/h (0 Bft) S 173 ° 0 min 0,000 mm 0,0 UV-I 0 W/m² 13,0 °C 13,8 °C 3,2 km/h (1 Bft)
09.08.2017 02:16 13,8 °C 13,8 °C 95 % 1014,4 hPa 0,2 mm 0,0 km/h (0 Bft) S 173 ° 0 min 0,000 mm 0,0 UV-I 0 W/m² 13,0 °C 13,8 °C 0,0 km/h (0 Bft)
09.08.2017 02:17 13,8 °C 13,8 °C 95 % 1014,2 hPa 0,0 mm 0,0 km/h (0 Bft) S 173 ° 0 min 0,000 mm 0,0 UV-I 0 W/m² 13,0 °C 13,8 °C 0,0 km/h (0 Bft)
09.08.2017 02:18 13,7 °C 13,8 °C 95 % 1014,1 hPa 0,2 mm 0,0 km/h (0 Bft) S 173 ° 0 min 0,000 mm 0,0 UV-I 0 W/m² 12,9 °C 13,7 °C 0,0 km/h (0 Bft)
09.08.2017 02:19 13,8 °C 13,8 °C 95 % 1014,1 hPa 0,0 mm 0,0 km/h (0 Bft) S 173 ° 0 min 0,000 mm 0,0 UV-I 0 W/m² 13,0 °C 13,8 °C 0,0 km/h (0 Bft)
09.08.2017 02:20 13,7 °C 13,8 °C 95 % 1013,9 hPa 0,2 mm 2,6 km/h (1 Bft) S 172 ° 0 min 0,000 mm 0,0 UV-I 0 W/m² 12,9 °C 13,7 °C 3,2 km/h (1 Bft)
09.08.2017 02:21 13,7 °C 13,7 °C 95 % 1013,9 hPa 0,2 mm 3,0 km/h (1 Bft) S 172 ° 0 min 0,000 mm 0,0 UV-I 0 W/m² 12,9 °C 13,7 °C 3,2 km/h (1 Bft)
09.08.2017 02:22 13,7 °C 13,7 °C 95 % 1014,3 hPa 0,0 mm 2,3 km/h (1 Bft) S 172 ° 0 min 0,000 mm 0,0 UV-I 0 W/m² 12,9 °C 13,7 °C 3,2 km/h (1 Bft)
09.08.2017 02:23 13,7 °C 13,7 °C 95 % 1014,5 hPa 0,0 mm 3,8 km/h (1 Bft) S 172 ° 0 min 0,000 mm 0,0 UV-I 0 W/m² 12,9 °C 13,7 °C 4,8 km/h (1 Bft)
09.08.2017 02:24 13,7 °C 13,7 °C 95 % 1014,6 hPa 0,0 mm 1,3 km/h (1 Bft) S 172 ° 0 min 0,000 mm 0,0 UV-I 0 W/m² 12,9 °C 13,7 °C 3,2 km/h (1 Bft)
09.08.2017 02:25 13,7 °C 13,7 °C 95 % 1014,6 hPa 0,2 mm 0,0 km/h (0 Bft) S 172 ° 0 min 0,000 mm 0,0 UV-I 0 W/m² 12,9 °C 13,7 °C 0,0 km/h (0 Bft)
09.08.2017 02:26 13,7 °C 13,7 °C 95 % 1014,7 hPa 0,0 mm 0,8 km/h (0 Bft) S 183 ° 0 min 0,000 mm 0,0 UV-I 0 W/m² 12,9 °C 13,7 °C 3,2 km/h (1 Bft)
09.08.2017 02:27 13,7 °C 13,7 °C 95 % 1014,7 hPa 0,0 mm 0,0 km/h (0 Bft) S 183 ° 0 min 0,000 mm 0,0 UV-I 0 W/m² 12,9 °C 13,7 °C 0,0 km/h (0 Bft)
09.08.2017 02:28 13,7 °C 13,7 °C 95 % 1014,6 hPa 0,0 mm 0,0 km/h (0 Bft) S 183 ° 0 min 0,000 mm 0,0 UV-I 0 W/m² 12,9 °C 13,7 °C 0,0 km/h (0 Bft)
09.08.2017 02:29 13,7 °C 13,7 °C 95 % 1014,4 hPa 0,0 mm 0,6 km/h (0 Bft) S 181 ° 0 min 0,000 mm 0,0 UV-I 0 W/m² 12,9 °C 13,7 °C 3,2 km/h (1 Bft)
09.08.2017 02:30 13,7 °C 13,7 °C 95 % 1014,3 hPa 0,0 mm 1,1 km/h (1 Bft) S 175 ° 0 min 0,000 mm 0,0 UV-I 0 W/m² 12,9 °C 13,7 °C 3,2 km/h (1 Bft)
09.08.2017 02:31 13,7 °C 13,7 °C 95 % 1014,3 hPa 0,0 mm 0,0 km/h (0 Bft) S 175 ° 0 min 0,000 mm 0,0 UV-I 0 W/m² 12,9 °C 13,7 °C 0,0 km/h (0 Bft)
09.08.2017 02:32 13,7 °C 13,7 °C 95 % 1014,1 hPa 0,0 mm 0,0 km/h (0 Bft) S 175 ° 0 min 0,000 mm 0,0 UV-I 0 W/m² 12,9 °C 13,7 °C 0,0 km/h (0 Bft)
09.08.2017 02:33 13,7 °C 13,7 °C 95 % 1014,1 hPa 0,0 mm 0,0 km/h (0 Bft) S 175 ° 0 min 0,000 mm 0,0 UV-I 0 W/m² 12,9 °C 13,7 °C 0,0 km/h (0 Bft)
09.08.2017 02:34 13,7 °C 13,7 °C 95 % 1013,9 hPa 0,0 mm 0,0 km/h (0 Bft) S 175 ° 0 min 0,000 mm 0,0 UV-I 0 W/m² 12,9 °C 13,7 °C 0,0 km/h (0 Bft)
09.08.2017 02:35 13,7 °C 13,7 °C 95 % 1013,8 hPa 0,0 mm 0,0 km/h (0 Bft) S 175 ° 0 min 0,000 mm 0,0 UV-I 0 W/m² 12,9 °C 13,7 °C 0,0 km/h (0 Bft)
09.08.2017 02:36 13,6 °C 13,7 °C 95 % 1013,7 hPa 0,2 mm 1,4 km/h (1 Bft) S-SO 150 ° 0 min 0,000 mm 0,0 UV-I 0 W/m² 12,8 °C 13,6 °C 4,8 km/h (1 Bft)
09.08.2017 02:37 13,7 °C 13,7 °C 95 % 1013,7 hPa 0,0 mm 0,5 km/h (0 Bft) S-SO 150 ° 0 min 0,000 mm 0,0 UV-I 0 W/m² 12,9 °C 13,7 °C 1,6 km/h (1 Bft)
09.08.2017 02:38 13,7 °C 13,7 °C 95 % 1013,7 hPa 0,0 mm 0,7 km/h (0 Bft) S-SO 150 ° 0 min 0,000 mm 0,0 UV-I 0 W/m² 12,9 °C 13,7 °C 3,2 km/h (1 Bft)
09.08.2017 02:39 13,7 °C 13,7 °C 95 % 1013,7 hPa 0,0 mm 0,0 km/h (0 Bft) S-SO 150 ° 0 min 0,000 mm 0,0 UV-I 0 W/m² 12,9 °C 13,7 °C 0,0 km/h (0 Bft)
09.08.2017 02:40 13,7 °C 13,7 °C 95 % 1013,7 hPa 0,0 mm 0,0 km/h (0 Bft) S-SO 150 ° 0 min 0,000 mm 0,0 UV-I 0 W/m² 12,9 °C 13,7 °C 0,0 km/h (0 Bft)
09.08.2017 02:41 13,7 °C 13,7 °C 95 % 1013,7 hPa 0,0 mm 0,0 km/h (0 Bft) S-SO 150 ° 0 min 0,000 mm 0,0 UV-I 0 W/m² 12,9 °C 13,7 °C 0,0 km/h (0 Bft)
09.08.2017 02:42 13,7 °C 13,7 °C 95 % 1013,8 hPa 0,0 mm 0,0 km/h (0 Bft) S-SO 150 ° 0 min 0,000 mm 0,0 UV-I 0 W/m² 12,9 °C 13,7 °C 0,0 km/h (0 Bft)
09.08.2017 02:43 13,7 °C 13,7 °C 95 % 1013,9 hPa 0,0 mm 0,0 km/h (0 Bft) S-SO 150 ° 0 min 0,000 mm 0,0 UV-I 0 W/m² 12,9 °C 13,7 °C 0,0 km/h (0 Bft)
09.08.2017 02:44 13,7 °C 13,7 °C 95 % 1014,0 hPa 0,0 mm 0,0 km/h (0 Bft) S-SO 150 ° 0 min 0,000 mm 0,0 UV-I 0 W/m² 12,9 °C 13,7 °C 0,0 km/h (0 Bft)
09.08.2017 02:45 13,7 °C 13,7 °C 95 % 1014,1 hPa 0,0 mm 0,5 km/h (0 Bft) S-SO 150 ° 0 min 0,000 mm 0,0 UV-I 0 W/m² 12,9 °C 13,7 °C 3,2 km/h (1 Bft)
09.08.2017 02:46 13,7 °C 13,7 °C 95 % 1014,3 hPa 0,0 mm 2,2 km/h (1 Bft) S-SO 150 ° 0 min 0,000 mm 0,0 UV-I 0 W/m² 12,9 °C 13,7 °C 3,2 km/h (1 Bft)
09.08.2017 02:47 13,7 °C 13,7 °C 96 % 1014,3 hPa 0,0 mm 2,8 km/h (1 Bft) S 178 ° 0 min 0,000 mm 0,0 UV-I 0 W/m² 13,1 °C 13,7 °C 3,2 km/h (1 Bft)
09.08.2017 02:48 13,7 °C 13,7 °C 96 % 1014,6 hPa 0,0 mm 2,9 km/h (1 Bft) S 184 ° 0 min 0,000 mm 0,0 UV-I 0 W/m² 13,1 °C 13,7 °C 4,8 km/h (1 Bft)
09.08.2017 02:49 13,8 °C 13,8 °C 95 % 1014,6 hPa 0,0 mm 1,7 km/h (1 Bft) S 184 ° 0 min 0,000 mm 0,0 UV-I 0 W/m² 13,0 °C 13,8 °C 3,2 km/h (1 Bft)
09.08.2017 02:50 13,8 °C 13,8 °C 95 % 1014,6 hPa 0,0 mm 1,3 km/h (1 Bft) S 184 ° 0 min 0,000 mm 0,0 UV-I 0 W/m² 13,0 °C 13,8 °C 1,6 km/h (1 Bft)
09.08.2017 02:51 13,8 °C 13,8 °C 95 % 1014,5 hPa 0,0 mm 1,1 km/h (1 Bft) S 185 ° 0 min 0,000 mm 0,0 UV-I 0 W/m² 13,0 °C 13,8 °C 3,2 km/h (1 Bft)
09.08.2017 02:52 13,8 °C 13,8 °C 95 % 1014,5 hPa 0,0 mm 2,6 km/h (1 Bft) S-SW 202 ° 0 min 0,000 mm 0,0 UV-I 0 W/m² 13,0 °C 13,8 °C 4,8 km/h (1 Bft)
09.08.2017 02:53 13,8 °C 13,8 °C 95 % 1014,5 hPa 0,0 mm 1,7 km/h (1 Bft) S-SW 202 ° 0 min 0,000 mm 0,0 UV-I 0 W/m² 13,0 °C 13,8 °C 3,2 km/h (1 Bft)
09.08.2017 02:54 13,8 °C 13,8 °C 95 % 1014,5 hPa 0,2 mm 2,5 km/h (1 Bft) SW 232 ° 0 min 0,000 mm 0,0 UV-I 0 W/m² 13,0 °C 13,8 °C 4,8 km/h (1 Bft)
09.08.2017 02:55 13,8 °C 13,8 °C 95 % 1014,4 hPa 0,0 mm 2,2 km/h (1 Bft) SW 232 ° 0 min 0,000 mm 0,0 UV-I 0 W/m² 13,0 °C 13,8 °C 3,2 km/h (1 Bft)
09.08.2017 02:56 13,8 °C 13,8 °C 95 % 1014,5 hPa 0,0 mm 0,2 km/h (0 Bft) SW 232 ° 0 min 0,000 mm 0,0 UV-I 0 W/m² 13,0 °C 13,8 °C 1,6 km/h (1 Bft)
09.08.2017 02:57 13,8 °C 13,8 °C 95 % 1014,8 hPa 0,0 mm 0,6 km/h (0 Bft) SW 232 ° 0 min 0,000 mm 0,0 UV-I 0 W/m² 13,0 °C 13,8 °C 3,2 km/h (1 Bft)
09.08.2017 02:58 13,8 °C 13,8 °C 95 % 1014,8 hPa 0,2 mm 4,1 km/h (1 Bft) S 186 ° 0 min 0,000 mm 0,0 UV-I 0 W/m² 13,0 °C 13,8 °C 6,4 km/h (2 Bft)
09.08.2017 02:59 13,8 °C 13,8 °C 95 % 1014,9 hPa 0,2 mm 1,7 km/h (1 Bft) S 186 ° 0 min 0,000 mm 0,0 UV-I 0 W/m² 13,0 °C 13,8 °C 4,8 km/h (1 Bft)
09.08.2017 03:00 13,8 °C 13,8 °C 95 % 1015,1 hPa 0,0 mm 2,1 km/h (1 Bft) S 186 ° 0 min 0,000 mm 0,0 UV-I 0 W/m² 13,0 °C 13,8 °C 4,8 km/h (1 Bft)
09.08.2017 03:01 13,8 °C 13,8 °C 95 % 1015,2 hPa 0,2 mm 1,4 km/h (1 Bft) S 186 ° 0 min 0,000 mm 0,0 UV-I 0 W/m² 13,0 °C 13,8 °C 3,2 km/h (1 Bft)
09.08.2017 03:02 13,8 °C 13,8 °C 95 % 1015,2 hPa 0,0 mm 2,7 km/h (1 Bft) S 186 ° 0 min 0,000 mm 0,0 UV-I 0 W/m² 13,0 °C 13,8 °C 3,2 km/h (1 Bft)
09.08.2017 03:03 13,8 °C 13,8 °C 95 % 1015,2 hPa 0,2 mm 3,4 km/h (1 Bft) S-SW 194 ° 0 min 0,000 mm 0,0 UV-I 0 W/m² 13,0 °C 13,8 °C 4,8 km/h (1 Bft)
09.08.2017 03:04 13,8 °C 13,8 °C 95 % 1015,2 hPa 0,0 mm 2,6 km/h (1 Bft) S 191 ° 0 min 0,000 mm 0,0 UV-I 0 W/m² 13,0 °C 13,8 °C 4,8 km/h (1 Bft)
09.08.2017 03:05 13,8 °C 13,8 °C 95 % 1015,3 hPa 0,2 mm 2,3 km/h (1 Bft) S 183 ° 0 min 0,000 mm 0,0 UV-I 0 W/m² 13,0 °C 13,8 °C 6,4 km/h (2 Bft)
09.08.2017 03:06 13,8 °C 13,8 °C 95 % 1015,2 hPa 0,0 mm 4,5 km/h (1 Bft) W-SW 238 ° 0 min 0,000 mm 0,0 UV-I 0 W/m² 13,0 °C 13,8 °C 9,7 km/h (2 Bft)
09.08.2017 03:07 13,8 °C 13,8 °C 95 % 1015,1 hPa 0,2 mm 2,2 km/h (1 Bft) W-SW 246 ° 0 min 0,000 mm 0,0 UV-I 0 W/m² 13,0 °C 13,8 °C 6,4 km/h (2 Bft)
09.08.2017 03:08 13,8 °C 13,8 °C 95 % 1015,0 hPa 0,0 mm 2,3 km/h (1 Bft) SW 236 ° 0 min 0,000 mm 0,0 UV-I 0 W/m² 13,0 °C 13,8 °C 3,2 km/h (1 Bft)
09.08.2017 03:09 13,8 °C 13,8 °C 95 % 1015,0 hPa 0,4 mm 2,1 km/h (1 Bft) S-SW 209 ° 0 min 0,000 mm 0,0 UV-I 0 W/m² 13,0 °C 13,8 °C 3,2 km/h (1 Bft)
09.08.2017 03:10 13,8 °C 13,8 °C 95 % 1015,0 hPa 0,2 mm 1,6 km/h (1 Bft) S 189 ° 0 min 0,000 mm 0,0 UV-I 0 W/m² 13,0 °C 13,8 °C 4,8 km/h (1 Bft)
09.08.2017 03:11 13,9 °C 13,9 °C 95 % 1014,9 hPa 0,2 mm 0,2 km/h (0 Bft) S 190 ° 0 min 0,000 mm 0,0 UV-I 0 W/m² 13,1 °C 13,9 °C 1,6 km/h (1 Bft)
09.08.2017 03:12 13,8 °C 13,9 °C 95 % 1014,9 hPa 0,2 mm 0,0 km/h (0 Bft) S 190 ° 0 min 0,000 mm 0,0 UV-I 0 W/m² 13,0 °C 13,8 °C 0,0 km/h (0 Bft)
09.08.2017 03:13 13,8 °C 13,8 °C 95 % 1014,9 hPa 0,0 mm 0,2 km/h (0 Bft) S 190 ° 0 min 0,000 mm 0,0 UV-I 0 W/m² 13,0 °C 13,8 °C 1,6 km/h (1 Bft)
09.08.2017 03:14 13,8 °C 13,8 °C 95 % 1014,8 hPa 0,2 mm 0,0 km/h (0 Bft) S 190 ° 0 min 0,000 mm 0,0 UV-I 0 W/m² 13,0 °C 13,8 °C 0,0 km/h (0 Bft)
09.08.2017 03:15 13,8 °C 13,8 °C 95 % 1014,8 hPa 0,0 mm 0,0 km/h (0 Bft) S 190 ° 0 min 0,000 mm 0,0 UV-I 0 W/m² 13,0 °C 13,8 °C 0,0 km/h (0 Bft)
09.08.2017 03:16 13,8 °C 13,8 °C 95 % 1014,7 hPa 0,2 mm 0,0 km/h (0 Bft) S 190 ° 0 min 0,000 mm 0,0 UV-I 0 W/m² 13,0 °C 13,8 °C 0,0 km/h (0 Bft)
09.08.2017 03:17 13,8 °C 13,8 °C 95 % 1014,7 hPa 0,2 mm 0,0 km/h (0 Bft) S 190 ° 0 min 0,000 mm 0,0 UV-I 0 W/m² 13,0 °C 13,8 °C 0,0 km/h (0 Bft)
09.08.2017 03:18 13,8 °C 13,8 °C 95 % 1014,7 hPa 0,0 mm 0,0 km/h (0 Bft) S 190 ° 0 min 0,000 mm 0,0 UV-I 0 W/m² 13,0 °C 13,8 °C 0,0 km/h (0 Bft)
09.08.2017 03:19 13,8 °C 13,8 °C 95 % 1014,7 hPa 0,2 mm 0,0 km/h (0 Bft) S 190 ° 0 min 0,000 mm 0,0 UV-I 0 W/m² 13,0 °C 13,8 °C 0,0 km/h (0 Bft)
09.08.2017 03:20 13,8 °C 13,8 °C 95 % 1014,5 hPa 0,0 mm 0,0 km/h (0 Bft) S 190 ° 0 min 0,000 mm 0,0 UV-I 0 W/m² 13,0 °C 13,8 °C 0,0 km/h (0 Bft)
09.08.2017 03:21 13,8 °C 13,8 °C 95 % 1014,5 hPa 0,2 mm 0,0 km/h (0 Bft) S 190 ° 0 min 0,000 mm 0,0 UV-I 0 W/m² 13,0 °C 13,8 °C 0,0 km/h (0 Bft)
09.08.2017 03:22 13,8 °C 13,8 °C 95 % 1014,3 hPa 0,0 mm 0,1 km/h (0 Bft) S 189 ° 0 min 0,000 mm 0,0 UV-I 0 W/m² 13,0 °C 13,8 °C 1,6 km/h (1 Bft)
09.08.2017 03:23 13,8 °C 13,8 °C 95 % 1014,3 hPa 0,2 mm 0,3 km/h (0 Bft) S 189 ° 0 min 0,000 mm 0,0 UV-I 0 W/m² 13,0 °C 13,8 °C 1,6 km/h (1 Bft)
09.08.2017 03:24 13,8 °C 13,8 °C 95 % 1014,3 hPa 0,0 mm 0,1 km/h (0 Bft) S 189 ° 0 min 0,000 mm 0,0 UV-I 0 W/m² 13,0 °C 13,8 °C 1,6 km/h (1 Bft)
09.08.2017 03:25 13,8 °C 13,8 °C 95 % 1014,4 hPa 0,2 mm 0,0 km/h (0 Bft) S 189 ° 0 min 0,000 mm 0,0 UV-I 0 W/m² 13,0 °C 13,8 °C 0,0 km/h (0 Bft)
09.08.2017 03:26 13,8 °C 13,8 °C 95 % 1014,5 hPa 0,0 mm 0,0 km/h (0 Bft) S 189 ° 0 min 0,000 mm 0,0 UV-I 0 W/m² 13,0 °C 13,8 °C 0,0 km/h (0 Bft)
09.08.2017 03:27 13,7 °C 13,8 °C 95 % 1014,5 hPa 0,0 mm 0,0 km/h (0 Bft) S 189 ° 0 min 0,000 mm 0,0 UV-I 0 W/m² 12,9 °C 13,7 °C 0,0 km/h (0 Bft)
09.08.2017 03:28 13,8 °C 13,8 °C 96 % 1014,4 hPa 0,0 mm 0,0 km/h (0 Bft) S 189 ° 0 min 0,000 mm 0,0 UV-I 0 W/m² 13,2 °C 13,8 °C 0,0 km/h (0 Bft)
09.08.2017 03:29 13,8 °C 13,8 °C 95 % 1014,4 hPa 0,0 mm 1,5 km/h (1 Bft) S 189 ° 0 min 0,000 mm 0,0 UV-I 0 W/m² 13,0 °C 13,8 °C 1,6 km/h (1 Bft)
09.08.2017 03:30 13,8 °C 13,8 °C 96 % 1014,5 hPa 0,2 mm 1,4 km/h (1 Bft) S 189 ° 0 min 0,000 mm 0,0 UV-I 0 W/m² 13,2 °C 13,8 °C 3,2 km/h (1 Bft)
09.08.2017 03:31 13,7 °C 13,8 °C 96 % 1014,3 hPa 0,0 mm 1,4 km/h (1 Bft) S 189 ° 0 min 0,000 mm 0,0 UV-I 0 W/m² 13,1 °C 13,7 °C 1,6 km/h (1 Bft)
09.08.2017 03:32 13,7 °C 13,8 °C 96 % 1014,3 hPa 0,0 mm 0,3 km/h (0 Bft) S 189 ° 0 min 0,000 mm 0,0 UV-I 0 W/m² 13,1 °C 13,7 °C 1,6 km/h (1 Bft)
09.08.2017 03:33 13,7 °C 13,7 °C 96 % 1014,2 hPa 0,0 mm 0,4 km/h (0 Bft) S 189 ° 0 min 0,000 mm 0,0 UV-I 0 W/m² 13,1 °C 13,7 °C 1,6 km/h (1 Bft)
09.08.2017 03:34 13,7 °C 13,7 °C 96 % 1014,2 hPa 0,0 mm 0,0 km/h (0 Bft) S 189 ° 0 min 0,000 mm 0,0 UV-I 0 W/m² 13,1 °C 13,7 °C 0,0 km/h (0 Bft)
09.08.2017 03:35 13,7 °C 13,7 °C 96 % 1014,1 hPa 0,0 mm 0,9 km/h (0 Bft) S 188 ° 0 min 0,000 mm 0,0 UV-I 0 W/m² 13,1 °C 13,7 °C 1,6 km/h (1 Bft)
09.08.2017 03:36 13,8 °C 13,8 °C 96 % 1014,0 hPa 0,0 mm 0,6 km/h (0 Bft) S 188 ° 0 min 0,000 mm 0,0 UV-I 0 W/m² 13,2 °C 13,8 °C 1,6 km/h (1 Bft)
09.08.2017 03:37 13,8 °C 13,8 °C 96 % 1013,9 hPa 0,0 mm 0,3 km/h (0 Bft) S 188 ° 0 min 0,000 mm 0,0 UV-I 0 W/m² 13,2 °C 13,8 °C 1,6 km/h (1 Bft)
09.08.2017 03:38 13,8 °C 13,8 °C 96 % 1013,9 hPa 0,0 mm 0,0 km/h (0 Bft) S 188 ° 0 min 0,000 mm 0,0 UV-I 0 W/m² 13,2 °C 13,8 °C 0,0 km/h (0 Bft)
09.08.2017 03:39 13,8 °C 13,8 °C 96 % 1014,1 hPa 0,0 mm 0,0 km/h (0 Bft) S 188 ° 0 min 0,000 mm 0,0 UV-I 0 W/m² 13,2 °C 13,8 °C 0,0 km/h (0 Bft)
09.08.2017 03:40 13,8 °C 13,8 °C 96 % 1014,1 hPa 0,0 mm 0,3 km/h (0 Bft) S 188 ° 0 min 0,000 mm 0,0 UV-I 0 W/m² 13,2 °C 13,8 °C 1,6 km/h (1 Bft)
09.08.2017 03:41 13,8 °C 13,8 °C 96 % 1014,3 hPa 0,0 mm 3,1 km/h (1 Bft) S 187 ° 0 min 0,000 mm 0,0 UV-I 0 W/m² 13,2 °C 13,8 °C 3,2 km/h (1 Bft)
09.08.2017 03:42 13,8 °C 13,8 °C 96 % 1014,4 hPa 0,0 mm 3,4 km/h (1 Bft) S 187 ° 0 min 0,000 mm 0,0 UV-I 0 W/m² 13,2 °C 13,8 °C 4,8 km/h (1 Bft)
09.08.2017 03:43 13,8 °C 13,8 °C 96 % 1014,7 hPa 0,0 mm 2,1 km/h (1 Bft) S 187 ° 0 min 0,000 mm 0,0 UV-I 0 W/m² 13,2 °C 13,8 °C 3,2 km/h (1 Bft)
09.08.2017 03:44 13,8 °C 13,8 °C 96 % 1014,7 hPa 0,0 mm 0,6 km/h (0 Bft) S 187 ° 0 min 0,000 mm 0,0 UV-I 0 W/m² 13,2 °C 13,8 °C 1,6 km/h (1 Bft)
09.08.2017 03:45 13,8 °C 13,8 °C 96 % 1014,7 hPa 0,0 mm 0,4 km/h (0 Bft) S 187 ° 0 min 0,000 mm 0,0 UV-I 0 W/m² 13,2 °C 13,8 °C 1,6 km/h (1 Bft)
09.08.2017 03:46 13,8 °C 13,8 °C 96 % 1014,6 hPa 0,0 mm 0,0 km/h (0 Bft) S 187 ° 0 min 0,000 mm 0,0 UV-I 0 W/m² 13,2 °C 13,8 °C 0,0 km/h (0 Bft)
09.08.2017 03:47 13,8 °C 13,8 °C 96 % 1014,5 hPa 0,2 mm 0,0 km/h (0 Bft) S 187 ° 0 min 0,000 mm 0,0 UV-I 0 W/m² 13,2 °C 13,8 °C 0,0 km/h (0 Bft)
09.08.2017 03:48 13,8 °C 13,8 °C 96 % 1014,4 hPa 0,0 mm 0,0 km/h (0 Bft) S 187 ° 0 min 0,000 mm 0,0 UV-I 0 W/m² 13,2 °C 13,8 °C 0,0 km/h (0 Bft)
09.08.2017 03:49 13,8 °C 13,8 °C 96 % 1014,3 hPa 0,0 mm 0,0 km/h (0 Bft) S 187 ° 0 min 0,000 mm 0,0 UV-I 0 W/m² 13,2 °C 13,8 °C 0,0 km/h (0 Bft)
09.08.2017 03:50 13,8 °C 13,8 °C 96 % 1014,2 hPa 0,0 mm 0,1 km/h (0 Bft) S 187 ° 0 min 0,000 mm 0,0 UV-I 0 W/m² 13,2 °C 13,8 °C 1,6 km/h (1 Bft)
09.08.2017 03:51 13,8 °C 13,8 °C 96 % 1014,1 hPa 0,0 mm 0,0 km/h (0 Bft) S 187 ° 0 min 0,000 mm 0,0 UV-I 0 W/m² 13,2 °C 13,8 °C 0,0 km/h (0 Bft)
09.08.2017 03:52 13,8 °C 13,8 °C 96 % 1014,1 hPa 0,0 mm 0,0 km/h (0 Bft) S 187 ° 0 min 0,000 mm 0,0 UV-I 0 W/m² 13,2 °C 13,8 °C 0,0 km/h (0 Bft)
09.08.2017 03:53 13,7 °C 13,8 °C 96 % 1014,3 hPa 0,0 mm 0,6 km/h (0 Bft) S 187 ° 0 min 0,000 mm 0,0 UV-I 0 W/m² 13,1 °C 13,7 °C 1,6 km/h (1 Bft)
09.08.2017 03:54 13,7 °C 13,8 °C 96 % 1014,3 hPa 0,0 mm 1,4 km/h (1 Bft) S 187 ° 0 min 0,000 mm 0,0 UV-I 0 W/m² 13,1 °C 13,7 °C 3,2 km/h (1 Bft)
09.08.2017 03:55 13,7 °C 13,7 °C 96 % 1014,4 hPa 0,0 mm 2,3 km/h (1 Bft) S 187 ° 0 min 0,000 mm 0,0 UV-I 0 W/m² 13,1 °C 13,7 °C 3,2 km/h (1 Bft)
09.08.2017 03:56 13,7 °C 13,7 °C 96 % 1014,5 hPa 0,2 mm 0,6 km/h (0 Bft) S 187 ° 0 min 0,000 mm 0,0 UV-I 0 W/m² 13,1 °C 13,7 °C 1,6 km/h (1 Bft)
09.08.2017 03:57 13,7 °C 13,7 °C 96 % 1014,5 hPa 0,0 mm 0,0 km/h (0 Bft) S 187 ° 0 min 0,000 mm 0,0 UV-I 0 W/m² 13,1 °C 13,7 °C 0,0 km/h (0 Bft)
09.08.2017 03:58 13,8 °C 13,8 °C 96 % 1014,5 hPa 0,0 mm 0,0 km/h (0 Bft) S 187 ° 0 min 0,000 mm 0,0 UV-I 0 W/m² 13,2 °C 13,8 °C 0,0 km/h (0 Bft)
09.08.2017 03:59 13,8 °C 13,8 °C 96 % 1014,5 hPa 0,0 mm 0,0 km/h (0 Bft) S 187 ° 0 min 0,000 mm 0,0 UV-I 0 W/m² 13,2 °C 13,8 °C 0,0 km/h (0 Bft)
09.08.2017 04:00 13,8 °C 13,8 °C 96 % 1014,5 hPa 0,2 mm 0,9 km/h (0 Bft) S 187 ° 0 min 0,000 mm 0,0 UV-I 0 W/m² 13,2 °C 13,8 °C 1,6 km/h (1 Bft)
09.08.2017 04:01 13,8 °C 13,8 °C 96 % 1014,6 hPa 0,0 mm 2,0 km/h (1 Bft) S 187 ° 0 min 0,000 mm 0,0 UV-I 0 W/m² 13,2 °C 13,8 °C 3,2 km/h (1 Bft)
09.08.2017 04:02 13,8 °C 13,8 °C 96 % 1014,6 hPa 0,0 mm 1,0 km/h (0 Bft) S 187 ° 0 min 0,000 mm 0,0 UV-I 0 W/m² 13,2 °C 13,8 °C 1,6 km/h (1 Bft)
09.08.2017 04:03 13,8 °C 13,8 °C 96 % 1014,6 hPa 0,2 mm 0,3 km/h (0 Bft) S 187 ° 0 min 0,000 mm 0,0 UV-I 0 W/m² 13,2 °C 13,8 °C 1,6 km/h (1 Bft)
09.08.2017 04:04 13,8 °C 13,8 °C 96 % 1014,8 hPa 0,0 mm 0,5 km/h (0 Bft) S 187 ° 0 min 0,000 mm 0,0 UV-I 0 W/m² 13,2 °C 13,8 °C 1,6 km/h (1 Bft)
09.08.2017 04:05 13,8 °C 13,8 °C 96 % 1014,9 hPa 0,0 mm 0,0 km/h (0 Bft) S 187 ° 0 min 0,000 mm 0,0 UV-I 0 W/m² 13,2 °C 13,8 °C 0,0 km/h (0 Bft)
09.08.2017 04:06 13,8 °C 13,8 °C 96 % 1015,1 hPa 0,2 mm 0,0 km/h (0 Bft) S 187 ° 0 min 0,000 mm 0,0 UV-I 0 W/m² 13,2 °C 13,8 °C 0,0 km/h (0 Bft)
09.08.2017 04:07 13,8 °C 13,8 °C 96 % 1015,1 hPa 0,0 mm 0,0 km/h (0 Bft) S 187 ° 0 min 0,000 mm 0,0 UV-I 0 W/m² 13,2 °C 13,8 °C 0,0 km/h (0 Bft)
09.08.2017 04:08 13,8 °C 13,8 °C 96 % 1015,1 hPa 0,0 mm 0,0 km/h (0 Bft) S 187 ° 0 min 0,000 mm 0,0 UV-I 0 W/m² 13,2 °C 13,8 °C 0,0 km/h (0 Bft)
09.08.2017 04:09 13,8 °C 13,8 °C 96 % 1015,1 hPa 0,2 mm 0,0 km/h (0 Bft) S 187 ° 0 min 0,000 mm 0,0 UV-I 0 W/m² 13,2 °C 13,8 °C 0,0 km/h (0 Bft)
09.08.2017 04:10 13,8 °C 13,8 °C 96 % 1015,1 hPa 0,0 mm 0,0 km/h (0 Bft) S 187 ° 0 min 0,000 mm 0,0 UV-I 0 W/m² 13,2 °C 13,8 °C 0,0 km/h (0 Bft)
09.08.2017 04:11 13,8 °C 13,8 °C 96 % 1015,1 hPa 0,2 mm 0,0 km/h (0 Bft) S 187 ° 0 min 0,000 mm 0,0 UV-I 0 W/m² 13,2 °C 13,8 °C 0,0 km/h (0 Bft)
09.08.2017 04:12 13,8 °C 13,8 °C 96 % 1015,0 hPa 0,0 mm 0,0 km/h (0 Bft) S 187 ° 0 min 0,000 mm 0,0 UV-I 0 W/m² 13,2 °C 13,8 °C 0,0 km/h (0 Bft)
09.08.2017 04:13 13,8 °C 13,8 °C 96 % 1015,0 hPa 0,0 mm 0,0 km/h (0 Bft) S 187 ° 0 min 0,000 mm 0,0 UV-I 0 W/m² 13,2 °C 13,8 °C 0,0 km/h (0 Bft)
09.08.2017 04:14 13,8 °C 13,8 °C 96 % 1015,0 hPa 0,2 mm 0,0 km/h (0 Bft) S 187 ° 0 min 0,000 mm 0,0 UV-I 0 W/m² 13,2 °C 13,8 °C 0,0 km/h (0 Bft)
09.08.2017 04:15 13,7 °C 13,8 °C 96 % 1015,0 hPa 0,0 mm 0,0 km/h (0 Bft) S 187 ° 0 min 0,000 mm 0,0 UV-I 0 W/m² 13,1 °C 13,7 °C 0,0 km/h (0 Bft)
09.08.2017 04:16 13,8 °C 13,8 °C 96 % 1014,8 hPa 0,2 mm 0,0 km/h (0 Bft) S 187 ° 0 min 0,000 mm 0,0 UV-I 0 W/m² 13,2 °C 13,8 °C 0,0 km/h (0 Bft)
09.08.2017 04:17 13,7 °C 13,8 °C 96 % 1014,8 hPa 0,0 mm 0,0 km/h (0 Bft) S 187 ° 0 min 0,000 mm 0,0 UV-I 0 W/m² 13,1 °C 13,7 °C 0,0 km/h (0 Bft)
09.08.2017 04:18 13,8 °C 13,8 °C 96 % 1014,8 hPa 0,2 mm 0,0 km/h (0 Bft) S 187 ° 0 min 0,000 mm 0,0 UV-I 0 W/m² 13,2 °C 13,8 °C 0,0 km/h (0 Bft)
09.08.2017 04:19 13,8 °C 13,8 °C 96 % 1014,7 hPa 0,0 mm 0,0 km/h (0 Bft) S 188 ° 0 min 0,000 mm 0,0 UV-I 0 W/m² 13,2 °C 13,8 °C 0,0 km/h (0 Bft)
09.08.2017 04:20 13,8 °C 13,8 °C 96 % 1014,6 hPa 0,2 mm 0,0 km/h (0 Bft) S 188 ° 0 min 0,000 mm 0,0 UV-I 0 W/m² 13,2 °C 13,8 °C 0,0 km/h (0 Bft)
09.08.2017 04:21 13,7 °C 13,8 °C 96 % 1014,6 hPa 0,0 mm 0,0 km/h (0 Bft) S 188 ° 0 min 0,000 mm 0,0 UV-I 0 W/m² 13,1 °C 13,7 °C 0,0 km/h (0 Bft)
09.08.2017 04:22 13,7 °C 13,7 °C 96 % 1014,7 hPa 0,0 mm 0,0 km/h (0 Bft) S 188 ° 0 min 0,000 mm 0,0 UV-I 0 W/m² 13,1 °C 13,7 °C 0,0 km/h (0 Bft)
09.08.2017 04:23 13,7 °C 13,7 °C 96 % 1014,7 hPa 0,2 mm 0,0 km/h (0 Bft) S 188 ° 0 min 0,000 mm 0,0 UV-I 0 W/m² 13,1 °C 13,7 °C 0,0 km/h (0 Bft)
09.08.2017 04:24 13,7 °C 13,7 °C 96 % 1014,7 hPa 0,0 mm 0,0 km/h (0 Bft) S 188 ° 0 min 0,000 mm 0,0 UV-I 0 W/m² 13,1 °C 13,7 °C 0,0 km/h (0 Bft)
09.08.2017 04:25 13,7 °C 13,7 °C 96 % 1014,7 hPa 0,0 mm 0,0 km/h (0 Bft) S 188 ° 0 min 0,000 mm 0,0 UV-I 0 W/m² 13,1 °C 13,7 °C 0,0 km/h (0 Bft)
09.08.2017 04:26 13,7 °C 13,7 °C 96 % 1014,7 hPa 0,2 mm 0,0 km/h (0 Bft) S 188 ° 0 min 0,000 mm 0,0 UV-I 0 W/m² 13,1 °C 13,7 °C 0,0 km/h (0 Bft)
09.08.2017 04:27 13,7 °C 13,7 °C 96 % 1014,7 hPa 0,0 mm 0,0 km/h (0 Bft) SW 219 ° 0 min 0,000 mm 0,0 UV-I 0 W/m² 13,1 °C 13,7 °C 0,0 km/h (0 Bft)
09.08.2017 04:28 13,8 °C 13,8 °C 96 % 1014,7 hPa 0,0 mm 0,0 km/h (0 Bft) SW 219 ° 0 min 0,000 mm 0,0 UV-I 0 W/m² 13,2 °C 13,8 °C 0,0 km/h (0 Bft)
09.08.2017 04:29 13,7 °C 13,8 °C 96 % 1014,7 hPa 0,2 mm 0,0 km/h (0 Bft) SW 219 ° 0 min 0,000 mm 0,0 UV-I 0 W/m² 13,1 °C 13,7 °C 0,0 km/h (0 Bft)
09.08.2017 04:30 13,7 °C 13,7 °C 96 % 1014,7 hPa 0,0 mm 1,5 km/h (1 Bft) W-SW 258 ° 0 min 0,000 mm 0,0 UV-I 0 W/m² 13,1 °C 13,7 °C 1,6 km/h (1 Bft)
09.08.2017 04:31 13,7 °C 13,7 °C 96 % 1014,7 hPa 0,0 mm 1,1 km/h (1 Bft) W-SW 258 ° 0 min 0,000 mm 0,0 UV-I 0 W/m² 13,1 °C 13,7 °C 3,2 km/h (1 Bft)
09.08.2017 04:32 13,7 °C 13,8 °C 96 % 1014,6 hPa 0,2 mm 1,0 km/h (0 Bft) W-SW 258 ° 0 min 0,000 mm 0,0 UV-I 0 W/m² 13,1 °C 13,7 °C 1,6 km/h (1 Bft)
09.08.2017 04:33 13,7 °C 13,7 °C 96 % 1014,7 hPa 0,0 mm 0,6 km/h (0 Bft) W-SW 258 ° 0 min 0,000 mm 0,0 UV-I 0 W/m² 13,1 °C 13,7 °C 1,6 km/h (1 Bft)
09.08.2017 04:34 13,8 °C 13,8 °C 96 % 1014,7 hPa 0,2 mm 0,0 km/h (0 Bft) W 261 ° 0 min 0,000 mm 0,0 UV-I 0 W/m² 13,2 °C 13,8 °C 0,0 km/h (0 Bft)
09.08.2017 04:35 13,7 °C 13,8 °C 96 % 1014,7 hPa 0,2 mm 1,5 km/h (1 Bft) W-SW 244 ° 0 min 0,000 mm 0,0 UV-I 0 W/m² 13,1 °C 13,7 °C 4,8 km/h (1 Bft)
09.08.2017 04:36 13,7 °C 13,8 °C 96 % 1014,9 hPa 0,0 mm 4,3 km/h (1 Bft) W 261 ° 0 min 0,000 mm 0,0 UV-I 0 W/m² 13,1 °C 13,7 °C 6,4 km/h (2 Bft)
09.08.2017 04:37 13,7 °C 13,8 °C 96 % 1015,0 hPa 0,2 mm 2,3 km/h (1 Bft) W 271 ° 0 min 0,000 mm 0,0 UV-I 0 W/m² 13,1 °C 13,7 °C 4,8 km/h (1 Bft)
09.08.2017 04:38 13,7 °C 13,7 °C 96 % 1015,3 hPa 0,0 mm 2,4 km/h (1 Bft) SW 223 ° 0 min 0,000 mm 0,0 UV-I 0 W/m² 13,1 °C 13,7 °C 4,8 km/h (1 Bft)
09.08.2017 04:39 13,7 °C 13,7 °C 96 % 1015,3 hPa 0,0 mm 3,1 km/h (1 Bft) W-SW 246 ° 0 min 0,000 mm 0,0 UV-I 0 W/m² 13,1 °C 13,7 °C 4,8 km/h (1 Bft)
09.08.2017 04:40 13,7 °C 13,7 °C 96 % 1015,4 hPa 0,0 mm 3,9 km/h (1 Bft) W-SW 257 ° 0 min 0,000 mm 0,0 UV-I 0 W/m² 13,1 °C 13,7 °C 4,8 km/h (1 Bft)
09.08.2017 04:41 13,7 °C 13,7 °C 96 % 1015,5 hPa 0,0 mm 5,8 km/h (2 Bft) W-SW 257 ° 0 min 0,000 mm 0,0 UV-I 0 W/m² 13,1 °C 13,7 °C 9,7 km/h (2 Bft)
09.08.2017 04:42 13,7 °C 13,7 °C 96 % 1015,6 hPa 0,2 mm 6,2 km/h (2 Bft) W 265 ° 0 min 0,000 mm 0,0 UV-I 0 W/m² 13,1 °C 13,7 °C 9,7 km/h (2 Bft)
09.08.2017 04:43 13,7 °C 13,7 °C 96 % 1015,8 hPa 0,0 mm 4,4 km/h (1 Bft) W 269 ° 0 min 0,000 mm 0,0 UV-I 0 W/m² 13,1 °C 13,7 °C 6,4 km/h (2 Bft)
09.08.2017 04:44 13,6 °C 13,7 °C 96 % 1015,8 hPa 0,0 mm 3,4 km/h (1 Bft) W 262 ° 0 min 0,000 mm